Location: Asheville, NC
(35.6000°N, 82.5500°W)
Time: 16:40:44
(UTC-05:00)

Tiangong 2 - Pass Details

Date: 12 December 2017
Orbit: 384 x 390 km, 42.8° (Epoch: 18 January)

Event Time Altitude Azimuth Distance (km) Brightness Sun altitude
Exits shadow 05:22:58 19° 147° (SSE) 993 3.6 -25.2°
Drops below altitude 10° 05:24:03 10° 139° (SE) 1,403 4.6 -24.9°
Sets 05:26:10 0° 132° (SE) 2,256 5.9 -24.5°
